Location: Aalen
(48.8330°N, 10.1000°E)
Time: 03:06:39
(UTC+01:00)

BlueWalker 3 - Pass Details

Date: 07 December 2022
Orbit: 499 x 517 km, 53.2° (Epoch: 26 January)

Event Time Altitude Azimuth Distance (km) Brightness Sun altitude
Rises 18:37:23 0° 295° (WNW) 2,632 6.5 -21.1°
Reaches altitude 10° 18:39:36 10° 294° (WNW) 1,739 5.4 -21.4°
Maximum altitude 18:43:32 78° 208° (SSW) 525 1.9 -22.1°
Enters shadow 18:43:43 75° 170° (S) 531 1.9 -22.1°
